Regional Weather Roundup
Issued by NWS

Home | Current Version | Previous Version | Graphics & Text | Print | Product List | Glossary On
Versions: 1 2 3 4 5 6 7 8 9 10 11 12 13 14 15 16 17 18 19 20 21 22 23 24 25 26 27 28 29 30 31 32 33 34 35 36 37 38 39 40 41 42 43 44 45 46 47 48 49 50
000
ASUS43 KDMX 021203
RWRIA

WEATHER ROUNDUP FOR IOWA
NATIONAL WEATHER SERVICE DES MOINES IA
700 AM CDT MON MAY 02 2016

NOTE: "FAIR" INDICATES FEW OR NO CLOUDS BELOW 12,000 FEET WITH NO
SIGNIFICANT WEATHER AND/OR OBSTRUCTIONS TO VISIBILITY.

* - THESE STATIONS ARE NOT NWS STATIONS...THUS NOT UNDER NWS
QUALITY CONTROL.  THEY ALSO DO NOT REPORT WEATHER SUCH
AS PRECIPITATION OR FOG.

IAZ001>003-012>014-020>022-031>034-043>046-021300-
   NORTHWEST IOWA

CITY           SKY/WX    TMP DP  RH WIND       PRES   REMARKS
CARROLL *      CLEAR     37  37 100 CALM      30.12R FOG
CHEROKEE *     FOG       34  34 100 CALM      30.14R VSB 1/4
DENISON *      MOCLDY    41 N/A N/A CALM      30.11S
LE MARS *      CLEAR     36  34  93 CALM      30.15S
ORANGE CITY *  CLEAR     37  34  87 NW7       30.13S WCI  32
SHELDON *      CLEAR     34  34 100 CALM      30.12S
SIOUX CITY     CLEAR     37  34  89 NW5       30.15R WCI  33
6HR MIN TEMP:  36; 6HR MAX TEMP:  41;

SPENCER        CLEAR     35  32  88 CALM      30.13R
6HR MIN TEMP:  33; 6HR MAX TEMP:  40;

STORM LAKE *   PTCLDY    43  37  81 NW8       30.13S
$$

IAZ055>058-069>071-079>083-090>094-021300-
   SOUTHWEST IOWA

CITY           SKY/WX    TMP DP  RH WIND       PRES   REMARKS
ATLANTIC *     CLEAR     39  39 100 CALM      30.13R FOG
AUDUBON *      MOCLDY    36  34  93 CALM      30.13S
CLARINDA *       N/A    N/A N/A N/A MISG        N/A
COUNCIL BLFS * CLOUDY    45  43  93 N3        30.13S
CRESTON *      CLOUDY    46  45  93 N8        30.12R
HARLAN  *      CLEAR     39  39 100 CALM      30.17R
LAMONI         CLOUDY    46  45  96 N3        30.10R
6HR MIN TEMP:  46; 6HR MAX TEMP:  47;

RED OAK *      CLOUDY   N/A N/A N/A N6        30.13S
SHENANDOAH *   CLOUDY    46  46 100 N5        30.14R
$$

IAZ047>049-059>061-072>074-084-021300-
   CENTRAL IOWA

CITY           SKY/WX    TMP DP  RH WIND       PRES   REMARKS
AMES           FOG       39  39 100 CALM      30.11S VSB 3/4
6HR MIN TEMP:  38; 6HR MAX TEMP:  45;

ANKENY *       FOG       39  39 100 CALM      30.11S VSB 1/2
BOONE *        CLOUDY    43  43 100 CALM      30.10S
CHARITON *     CLEAR     45  45 100 N7        30.10R FOG
DES MOINES     PTCLDY    44  41  89 N5        30.11S
6HR MIN TEMP:  41; 6HR MAX TEMP:  48;

GRINNELL*      CLEAR     41  39  95 NW5       30.11S
KNOXVILLE *    CLEAR     43  43 100 N3        30.09S
MARSHALLTOWN   CLOUDY    38  38 100 CALM      30.11R FOG
6HR MIN TEMP:  35; 6HR MAX TEMP:  46;

NEWTON *       CLEAR     41  41 100 N6        30.11R
$$

IAZ004>006-015-016-023>025-035-036-021300-
   NORTH CENTRAL IOWA

CITY           SKY/WX    TMP DP  RH WIND       PRES   REMARKS
ALGONA *       CLEAR     41  37  87 NW5       30.12R
CLARION *      FOG       36  36 100 CALM      30.12S VSB 0
ESTHERVILLE    CLEAR     39  36  89 NW7       30.12R WCI  34
6HR MIN TEMP:  36; 6HR MAX TEMP:  43;

FORT DODGE *   CLOUDY    37  34  87 CALM      30.12S
MASON CITY     PTCLDY    38  37  97 W5        30.12S WCI  34
6HR MIN TEMP:  35; 6HR MAX TEMP:  44;

FOREST CITY *  CLOUDY    36  36 100 CALM      30.11R
WEBSTER CITY * FOG       39  39 100 NW3       30.10S VSB 1/4
IOWA FALLS *   CLOUDY    40  39  96 NW3       30.12S FOG
$$

IAZ007>011-017>019-026>030-037>042-050>054-066-021300-
   NORTHEAST IOWA

CITY           SKY/WX    TMP DP  RH WIND       PRES   REMARKS
CEDAR RAPIDS   CLOUDY    45  44  97 N5        30.09R
6HR MIN TEMP:  39; 6HR MAX TEMP:  46;

CHARLES CITY * CLOUDY    43  43 100 NE5       30.12R
CLINTON *      CLOUDY    47  46  97 N7        30.08S
DECORAH *      CLEAR     39  39 100 CALM      30.10S
DUBUQUE        CLOUDY    45  42  89 N10       30.09S
6HR MIN TEMP:  44; 6HR MAX TEMP:  47;

MONTICELLO *   CLOUDY    45  43  93 N5        30.10R
OELWEIN *      CLEAR     41  41 100 CALM      30.12R
WATERLOO       FOG       36  36 100 MISG      30.11R VSB 1/4
6HR MIN TEMP:  35; 6HR MAX TEMP:  45;

$$

IAZ064-065-067-068-078-021300-
   EAST CENTRAL IOWA

CITY           SKY/WX    TMP DP  RH WIND       PRES   REMARKS
DAVENPORT      CLOUDY    47  45  93 NE7       30.08S
6HR MIN TEMP:  47; 6HR MAX TEMP:  48; 6HR PCP:  0.03;

IOWA CITY      CLOUDY    46  43  89 N8        30.10S
6HR MIN TEMP:  43; 6HR MAX TEMP:  48;

MT. PLEASANT * CLOUDY    48  48 100 N7        30.08S
MUSCATINE *    CLOUDY    48  46  93 N5        30.09S
QUAD CITIES    CLOUDY    49  45  86 NE3       30.07S
6HR MIN TEMP:  49; 6HR MAX TEMP:  50;

$$

IAZ062-063-075>077-085>089-095>099-021300-
   SOUTHEAST IOWA

CITY           SKY/WX    TMP DP  RH WIND       PRES   REMARKS
BURLINGTON     CLOUDY    48  47  96 N8        30.06S FOG
6HR MIN TEMP:  48; 6HR MAX TEMP:  49;

FAIRFIELD *    CLOUDY    45  43  93 N7        30.09R
FORT MADISON * CLOUDY    46  46 100 N5        30.07S
KEOKUK *       CLOUDY    48  48 100 N5        30.06S
OSKALOOSA *      N/A     40  40  97 N7        30.10R FOG
OTTUMWA        PTCLDY    41  40  96 N6        30.09S FOG
6HR MIN TEMP:  41; 6HR MAX TEMP:  47;

WASHINGTON *   CLOUDY    45  45 100 N5        30.10S
$$

ABBREVIATIONS USED IN REMARKS
   TC - TEMPERATURES IN CELSIUS
  WCI - WIND CHILL INDEX
   HX - HEAT INDEX
  VSB - VISIBILITY
$$




USA.gov is the U.S. government's official web portal to all federal, state and local government web resources and services.